General Aviation Weather

Text Reports

Enter one or more of the following location identifiers separated by a space:

Zip Code, Four-Character ICAO or Three-Character IATA airport codes.

METAR - Aviation Routine Weather Report
ETHC - Celle,
Updated at 6:20 AM GMT on November 23, 2014 (7:20 AM CET):
METAR ETHC 230620Z AUTO 11003KT 4900 // ////// 04/03 Q1021 ///
TAF - Terminal Area Forecast
ETHC - Celle,
Updated at 6:20 AM GMT on November 23, 2014 (7:20 AM CET):
No TAF is currently available for this location.
Decoded:
No decoded TAF is available.
PIREP - Pilot Weather Report
ETHC - Celle,
Updated at 6:20 AM GMT on November 23, 2014 (7:20 AM CET):
No PIREP is currently available for this location.
AIRMET - Airmens Meteorological Information
ETHC - Celle,
Updated at 6:20 AM GMT on November 23, 2014 (7:20 AM CET):
No AIRMET is currently available for this location.
SIGMET - Significant Meteorological Information
ETHC - Celle,
Updated at 6:20 AM GMT on November 23, 2014 (7:20 AM CET):
No SIGMET is currently available for this location.
NOTAM - Notice to Airmen
ETHC - Celle,
Updated at 6:20 AM GMT on November 23, 2014 (7:20 AM CET):
No NOTAM is currently available for this location.
Forecast Area
ETHC - Celle,
Updated at 6:20 AM GMT on November 23, 2014 (7:20 AM CET):
No NOTAM is currently available for this location.
Aviation Weather Maps